Location: *
(45.4590°N, 16.3650°E)
Time: 15:58:56
(UTC+00:00)

Cosmos 724 - Pass Details

Date: 17 January 2020
Orbit: 864 x 931 km, 65.6° (Epoch: 19 February)

Event Time Altitude Azimuth Distance (km) Brightness Sun altitude
Rises 17:45:29 0° 200° (SSW) 3,517 7.8 -21.6°
Reaches altitude 10° 17:48:02 10° 197° (SSW) 2,569 7.0 -22.1°
Maximum altitude 17:53:52 60° 119° (ESE) 1,014 4.3 -23.1°
Enters shadow 17:54:53 52° 78° (ENE) 1,092 4.3 -23.3°
